User: anonymous   Login
Location: Unspecified
(0.0000°N, 0.0000°E)
Time: 01:15:17
(UTC+00:00)
Language:

Transit 2A Rocket - Orbit

View from above orbital plane
View from above orbital plane
View from above satellite
View from above satellite

Ground track
Ground track

The orbit data is extracted from the following two-line orbital elements,

1    47U 60007C   19145.89673773 -.00000048  00000-0  14579-4 0  9997
2    47  66.6647 113.8943 0233704 228.8299 129.2440 14.42035716 79096
Epoch (UTC): 25 May 2019 21:31:18
Eccentricity: 0.0233704
inclination: 66.6647°
perigee height: 585 km
apogee height: 918 km
right ascension of ascending node: 113.8943°
argument of perigee: 228.8299°
revolutions per day: 14.42035716
mean anomaly at epoch: 129.2440°
orbit number at epoch: 7909

The dashed part of the orbit path shows where the satellite is in the earth's shadow,  

DLR